Content
SEND FEEDBACK

Daily
Averages
Monthly
Summary
France

LE HAVRE, FRANCE


Home > Europe > France
Elevation: 338 feet     Latitude: 49 31N     Longitude: 000 04E

WEATHER
 
SELECT A DAY
Number of Records: 176,802;   Date Range: 3/4/97 - 8/31/14
 
SHARE

PRINT THIS DATA

[ ← Previous Day ]
WEATHER ALMANAC - MAY 14, 2013
[ Next Day → ]
[ °C ]   °F
Weather ElementAverageHighLow
Temperature49.9 °F53.6 °F (3:00 pm)46.4 °F (8:30 am)
Dewpoint44 °F46.4 °F (6:00 pm)42.8 °F (12:30 am)
Humidity80.5 %87 % (4:00 am)67 % (3:30 pm)
Barometer29.73 in29.95 in (12:30 am)29.42 in (10:00 pm)
Wind Speed13.6 mph21.9 mph (11:30 pm)
Wind Gust31.1 mph (10:30 pm)
Weather ElementAverage
Visibility6.2 mi
Wind DirectionSSW (201.9 °)

Weather ElementTotal
Precipitation---
Heating Degree Days15 (Base 65)
Averaged from 47 records on May 14, 2013
WEATHER CONDITIONS BREAKOUT
WIND DIRECTION BREAKOUT
WEATHER BY HOUR - MAY 14, 2013
[ °C ]   °F
Local TimeTemperatureDewpointHumidityBarometerVisibilityWind DirectionWind SpeedGust SpeedPrecipitationEventsConditions
12:30 AM48.2 °F42.8 °F82 %29.95 in6.2 miWSW (250°)18.4 mphMostly Cloudy
1:00 AM48.2 °F42.8 °F82 %29.95 in6.2 miWSW (250°)16.1 mphOvercast
1:30 AM48.2 °F42.8 °F82 %29.95 in6.2 miWSW (250°)16.1 mphMostly Cloudy
2:00 AM48.2 °F42.8 °F82 %29.95 in6.2 miWSW (240°)17.3 mphMostly Cloudy
2:30 AM48.2 °F42.8 °F82 %29.92 in6.2 miWSW (240°)17.3 mph
3:00 AM48.2 °F42.8 °F82 %29.92 in6.2 miWSW (240°)18.4 mph
3:30 AM48.2 °F42.8 °F82 %29.92 in6.2 miWSW (240°)16.1 mph
4:00 AM48.2 °F44.6 °F87 %29.92 in6.2 miWSW (240°)17.3 mph
4:30 AM48.2 °F44.6 °F87 %29.89 in6.2 miWSW (240°)13.8 mphOvercast
5:00 AM48.2 °F42.8 °F82 %29.89 in6.2 miWSW (240°)15.0 mphOvercast
5:30 AM48.2 °F42.8 °F82 %29.89 in6.2 miSW (230°)12.7 mphOvercast
6:00 AM48.2 °F42.8 °F82 %29.86 in6.2 miSW (230°)13.8 mphOvercast
6:30 AM48.2 °F42.8 °F82 %29.86 in6.2 miSW (230°)13.8 mphOvercast
7:00 AM48.2 °F42.8 °F82 %29.86 in6.2 miSW (220°)11.5 mphMostly Cloudy
7:30 AM48.2 °F42.8 °F82 %29.86 in6.2 miSW (220°)11.5 mphOvercast
8:00 AM48.2 °F42.8 °F82 %29.86 in6.2 miSW (220°)13.8 mphRainLight Rain
8:30 AM46.4 °F42.8 °F87 %29.86 in5.0 miSW (230°)12.7 mphRainLight Rain
9:00 AM48.2 °F44.6 °F87 %29.86 in6.2 miSSW (200°)8.1 mphRainLight Rain
9:30 AM48.2 °F44.6 °F87 %29.83 in6.2 miSSW (200°)10.4 mphRainLight Rain
10:00 AM48.2 °F44.6 °F87 %29.83 in6.2 miSSW (210°)10.4 mphLight Drizzle
10:30 AM48.2 °F44.6 °F87 %29.83 in6.2 miSSW (210°)10.4 mphRainLight Rain
11:00 AM48.2 °F44.6 °F87 %29.80 in6.2 miSSW (210°)9.2 mphMostly Cloudy
11:30 AM48.2 °F44.6 °F87 %29.80 in6.2 miSSW (200°)9.2 mphRainLight Rain
12:00 PM48.2 °F44.6 °F87 %29.80 in6.2 miSouth (190°)9.2 mphRainLight Rain
12:30 PM48.2 °F42.8 °F82 %29.77 in6.2 miSouth (190°)9.2 mphRainLight Rain
1:00 PM50.0 °F44.6 °F82 %29.74 in6.2 miSouth (190°)10.4 mphRainLight Rain
1:30 PM50.0 °F42.8 °F76 %29.74 in6.2 miSouth (190°)11.5 mphMostly Cloudy
2:00 PM51.8 °F42.8 °F71 %29.71 in6.2 miSouth (180°)11.5 mphOvercast
2:30 PM51.8 °F42.8 °F71 %29.68 in6.2 miSouth (180°)12.7 mphMostly Cloudy
3:00 PM53.6 °F44.6 °F72 %29.68 in6.2 miSouth (170°)12.7 mphMostly Cloudy
3:30 PM53.6 °F42.8 °F67 %29.65 in6.2 miSouth (170°)15.0 mphMostly Cloudy
4:00 PM53.6 °F44.6 °F72 %29.65 in6.2 miSouth (180°)13.8 mphOvercast
4:30 PM53.6 °F42.8 °F67 %29.62 in6.2 miSouth (180°)12.7 mphOvercast
5:00 PM51.8 °F42.8 °F71 %29.62 in6.2 miSouth (180°)12.7 mphOvercast
5:30 PM51.8 °F44.6 °F76 %29.59 in6.2 miSouth (180°)15.0 mphMostly Cloudy
6:00 PM51.8 °F46.4 °F82 %29.56 in6.2 miSouth (170°)10.4 mphLight Drizzle
6:30 PM51.8 °F46.4 °F82 %29.56 in6.2 miSSE (150°)10.4 mphOvercast
7:00 PM51.8 °F46.4 °F82 %29.53 in6.2 miSE (140°)10.4 mphOvercast
7:30 PM51.8 °F46.4 °F82 %29.50 in6.2 miSSE (150°)10.4 mphOvercast
8:00 PM53.6 °F44.6 °F72 %29.50 in6.2 miSouth (180°)16.1 mphMostly Cloudy
8:30 PM53.6 °F44.6 °F72 %29.47 in6.2 miSouth (180°)15.0 mphOvercast
9:00 PM51.8 °F46.4 °F82 %29.47 in6.2 miSouth (170°)16.1 mphRainLight Rain
9:30 PM51.8 °F46.4 °F82 %29.44 in6.2 miSouth (170°)16.1 mph
10:00 PM51.8 °F44.6 °F76 %29.42 in6.2 miSouth (170°)16.1 mph29.9 mphOvercast
10:30 PM51.8 °F46.4 °F82 %29.42 in6.2 miSouth (180°)17.3 mph31.1 mphMostly Cloudy
11:00 PM51.8 °F46.4 °F82 %29.42 in6.2 miSouth (190°)17.3 mph29.9 mphRainLight Rain
11:30 PM48.2 °F42.8 °F82 %29.44 in6.2 miSW (220°)21.9 mphMostly Cloudy
Hourly data recorded from LFOH, located miles away from Le Havre, France







STORIES FROM OUR PARTNERS